| time (UTC) | temp F | wind direction | speed knots | gust knots | rain 1hr in | rain 24hr in | rain mn in | humidity % | barometer mb |
| 20260508104524 | 47 | 285 | 0.0 | 1.7 | 0.00 | 0.00 | 0.00 | 76 | 1011.3 |
| 20260508103011 | 47 | 285 | 0.0 | 1.7 | 0.00 | 0.00 | 0.00 | 76 | 1011.8 |
| 20260508101518 | 47 | 285 | 0.0 | 1.7 | 0.00 | 0.00 | 0.00 | 75 | 1011.9 |
| 20260508100022 | 47 | 188 | 0.0 | 2.6 | 0.00 | 0.00 | 0.00 | 74 | 1011.8 |
| 20260508094523 | 47 | 243 | 0.0 | 0.0 | 0.00 | 0.00 | 0.00 | 74 | 1011.7 |
| 20260508093034 | 48 | 243 | 0.0 | 0.9 | 0.00 | 0.00 | 0.00 | 71 | 1011.5 |
| 20260508091514 | 49 | 336 | 0.0 | 5.2 | 0.00 | 0.00 | 0.00 | 70 | 1011.8 |
| 20260508090025 | 46 | 336 | 2.6 | 7.8 | 0.00 | 0.00 | 0.00 | 75 | 1012.1 |
| 20260508084504 | 45 | 246 | 0.0 | 1.7 | 0.00 | 0.00 | 0.00 | 73 | 1011.3 |
| 20260508083008 | 46 | 246 | 0.0 | 1.7 | 0.00 | 0.00 | 0.00 | 72 | 1011.1 |
| 20260508081510 | 46 | 246 | 0.0 | 2.6 | 0.00 | 0.01 | 0.00 | 73 | 1011.2 |
| 20260508080015 | 46 | 336 | 0.0 | 0.0 | 0.00 | 0.01 | 0.00 | 72 | 1011.2 |
| 20260508074512 | 46 | 336 | 0.0 | 0.0 | 0.00 | 0.01 | 0.00 | 70 | 1011.3 |
| 20260508073004 | 48 | 336 | 0.0 | 1.7 | 0.00 | 0.01 | 0.00 | 67 | 1011.5 |
| 20260508071510 | 50 | 248 | 0.0 | 1.7 | 0.00 | 0.01 | 0.00 | 63 | 1011.6 |
| 20260508070014 | 50 | 221 | 0.0 | 4.3 | 0.00 | 0.01 | 0.00 | 61 | 1011.6 |
| 20260508064517 | 52 | 209 | 1.7 | 5.2 | 0.00 | 0.01 | 0.00 | 59 | 1011.6 |
| 20260508063005 | 53 | 232 | 1.7 | 4.3 | 0.00 | 0.01 | 0.00 | 57 | 1011.7 |
| 20260508061506 | 53 | 188 | 1.7 | 4.3 | 0.00 | 0.01 | 0.00 | 56 | 1011.7 |
| 20260508060010 | 54 | 194 | 2.6 | 4.3 | 0.00 | 0.01 | 0.00 | 55 | 1011.7 |
| 20260508054517 | 54 | 203 | 2.6 | 4.3 | 0.00 | 0.01 | 0.00 | 54 | 1011.8 |
| 20260508053041 | 55 | 196 | 1.7 | 6.1 | 0.00 | 0.01 | 0.00 | 52 | 1011.9 |
| 20260508051508 | 56 | 204 | 3.5 | 6.1 | 0.00 | 0.01 | 0.00 | 52 | 1011.9 |
| 20260508050008 | 56 | 215 | 3.5 | 7.8 | 0.00 | 0.01 | 0.00 | 53 | 1012.1 |
| 20260508044516 | 57 | 213 | 4.3 | 7.8 | 0.00 | 0.01 | 0.01 | 52 | 1012.4 |
| 20260508043023 | 58 | 192 | 3.5 | 7.8 | 0.00 | 0.01 | 0.01 | 50 | 1012.4 |
| 20260508041547 | 58 | 206 | 3.5 | 7.0 | 0.00 | 0.01 | 0.01 | 49 | 1012.5 |
| 20260508040008 | 58 | 193 | 3.5 | 7.0 | 0.00 | 0.01 | 0.01 | 47 | 1012.8 |
| 20260508034512 | 56 | 209 | 1.7 | 3.5 | 0.00 | 0.01 | 0.01 | 48 | 1012.8 |
| 20260508033020 | 57 | 202 | 0.9 | 3.5 | 0.00 | 0.01 | 0.01 | 49 | 1012.8 |
| 20260508031521 | 57 | 190 | 0.9 | 2.6 | 0.00 | 0.01 | 0.01 | 49 | 1012.6 |
| 20260508030032 | 58 | 187 | 0.9 | 2.6 | 0.00 | 0.01 | 0.01 | 1012.5 | |
| 20260508024510 | 60 | 191 | 1.7 | 2.6 | 0.00 | 0.01 | 0.01 | 44 | 1012.4 |
| 20260508023020 | 62 | 195 | 0.0 | 1.7 | 0.00 | 0.01 | 0.01 | 42 | 1012.1 |
| 20260508021521 | 62 | 197 | 0.0 | 1.7 | 0.00 | 0.01 | 0.01 | 42 | 1012.0 |
| 20260508020030 | 64 | 197 | 0.0 | 1.7 | 0.00 | 0.01 | 0.01 | 40 | 1011.9 |
| 20260508014525 | 67 | 199 | 0.9 | 1.7 | 0.00 | 0.01 | 0.01 | 38 | 1011.6 |
| 20260508013012 | 69 | 274 | 0.0 | 1.7 | 0.00 | 0.01 | 0.01 | 37 | 1011.6 |
| 20260508011520 | 71 | 300 | 0.0 | 1.7 | 0.00 | 0.01 | 0.01 | 34 | 1011.7 |
| 20260508010024 | 73 | 300 | 0.0 | 1.7 | 0.00 | 0.01 | 0.01 | 27 | 1011.7 |
| 20260508004523 | 74 | 347 | 0.0 | 1.7 | 0.00 | 0.01 | 0.01 | 24 | 1011.7 |
| 20260508003024 | 76 | 330 | 0.0 | 1.7 | 0.00 | 0.01 | 0.01 | 23 | 1011.7 |
| 20260508001520 | 77 | 326 | 0.9 | 4.3 | 0.00 | 0.01 | 0.01 | 20 | 1011.6 |
| 20260508000023 | 78 | 315 | 0.9 | 4.3 | 0.00 | 0.02 | 0.01 | 21 | 1011.5 |
| 20260507234525 | 79 | 303 | 1.7 | 6.1 | 0.00 | 0.02 | 0.01 | 21 | 1011.7 |
| 20260507233007 | 79 | 323 | 2.6 | 5.2 | 0.00 | 0.04 | 0.01 | 20 | 1011.7 |
| 20260507231503 | 79 | 321 | 0.9 | 3.5 | 0.00 | 0.04 | 0.01 | 21 | 1011.9 |
| 20260507230003 | 79 | 333 | 0.9 | 6.1 | 0.00 | 0.04 | 0.01 | 21 | 1012.0 |
| 20260507224503 | 79 | 329 | 1.7 | 6.1 | 0.00 | 0.04 | 0.01 | 21 | 1012.0 |
| 20260507223004 | 79 | 262 | 0.9 | 5.2 | 0.00 | 0.04 | 0.01 | 22 | 1012.2 |
| 20260507221503 | 79 | 5 | 0.0 | 8.7 | 0.00 | 0.04 | 0.01 | 22 | 1012.3 |
| 20260507220003 | 79 | 332 | 0.0 | 8.7 | 0.00 | 0.04 | 0.01 | 23 | 1012.4 |
| 20260507214504 | 79 | 265 | 0.9 | 4.3 | 0.00 | 0.04 | 0.01 | 24 | 1012.5 |
| 20260507213010 | 78 | 310 | 0.9 | 7.0 | 0.00 | 0.04 | 0.01 | 22 | 1012.7 |
| 20260507211502 | 78 | 326 | 3.5 | 7.8 | 0.00 | 0.04 | 0.01 | 23 | 1013.0 |
| 20260507210006 | 78 | 240 | 2.6 | 6.1 | 0.00 | 0.04 | 0.01 | 24 | 1013.3 |
| 20260507204504 | 78 | 289 | 1.7 | 8.7 | 0.00 | 0.04 | 0.01 | 24 | 1013.4 |
| 20260507203004 | 78 | 332 | 0.9 | 7.0 | 0.00 | 0.04 | 0.01 | 25 | 1013.7 |
| 20260507201512 | 78 | 290 | 1.7 | 7.0 | 0.00 | 0.04 | 0.01 | 25 | 1014.0 |
| 20260507200009 | 77 | 286 | 1.7 | 5.2 | 0.00 | 0.04 | 0.01 | 25 | 1014.2 |
| 20260507194509 | 76 | 254 | 1.7 | 6.1 | 0.00 | 0.05 | 0.01 | 26 | 1014.4 |
| 20260507193008 | 76 | 265 | 1.7 | 5.2 | 0.00 | 0.05 | 0.01 | 26 | 1014.6 |
| 20260507191511 | 75 | 302 | 1.7 | 5.2 | 0.00 | 0.05 | 0.01 | 25 | 1014.8 |
| 20260507190005 | 74 | 313 | 2.6 | 5.2 | 0.00 | 0.05 | 0.01 | 28 | 1015.0 |
| 20260507184508 | 73 | 293 | 0.9 | 8.7 | 0.00 | 0.05 | 0.01 | 31 | 1015.2 |
| 20260507183007 | 72 | 360 | 1.7 | 12.2 | 0.00 | 0.05 | 0.01 | 33 | 1015.5 |
| 20260507181508 | 71 | 293 | 3.5 | 9.6 | 0.00 | 0.06 | 0.01 | 35 | 1015.6 |
| 20260507180009 | 70 | 265 | 2.6 | 7.8 | 0.00 | 0.06 | 0.01 | 34 | 1015.8 |
| 20260507174516 | 69 | 348 | 0.9 | 5.2 | 0.00 | 0.06 | 0.01 | 39 | 1016.0 |
| 20260507173010 | 67 | 360 | 1.7 | 8.7 | 0.00 | 0.07 | 0.01 | 43 | 1016.2 |
| 20260507171513 | 66 | 313 | 1.7 | 7.0 | 0.00 | 0.07 | 0.01 | 46 | 1016.6 |
| 20260507170011 | 64 | 352 | 2.6 | 7.8 | 0.00 | 0.07 | 0.01 | 49 | 1016.7 |
| 20260507164510 | 62 | 296 | 1.7 | 7.8 | 0.00 | 0.07 | 0.01 | 52 | 1016.9 |
| 20260507163013 | 61 | 337 | 1.7 | 8.7 | 0.00 | 0.07 | 0.01 | 57 | 1017.1 |
| 20260507161509 | 59 | 296 | 2.6 | 8.7 | 0.00 | 0.07 | 0.01 | 58 | 1017.2 |
| 20260507160014 | 59 | 12 | 1.7 | 4.3 | 0.00 | 0.07 | 0.01 | 60 | 1017.3 |
| 20260507154514 | 57 | 343 | 1.7 | 7.8 | 0.00 | 0.07 | 0.01 | 63 | 1017.4 |
| 20260507153015 | 56 | 298 | 0.9 | 2.6 | 0.00 | 0.08 | 0.01 | 69 | 1017.6 |
| 20260507151513 | 54 | 298 | 0.9 | 2.6 | 0.00 | 0.08 | 0.01 | 75 | 1017.7 |
| 20260507150017 | 51 | 313 | 1.7 | 3.5 | 0.00 | 0.10 | 0.01 | 79 | 1017.6 |
| 20260507144516 | 50 | 306 | 0.9 | 5.2 | 0.00 | 0.11 | 0.01 | 81 | 1017.7 |
| 20260507143021 | 48 | 350 | 1.7 | 6.1 | 0.00 | 0.12 | 0.01 | 84 | 1017.8 |
| 20260507141503 | 46 | 329 | 0.9 | 5.2 | 0.00 | 0.12 | 0.01 | 87 | 1017.8 |
| 20260507140007 | 44 | 250 | 2.6 | 8.7 | 0.00 | 0.12 | 0.01 | 91 | 1017.8 |
| 20260507134516 | 42 | 262 | 1.7 | 6.1 | 0.00 | 0.12 | 0.01 | 92 | 1018.1 |
| 20260507133014 | 40 | 260 | 1.7 | 6.1 | 0.00 | 0.13 | 0.01 | 93 | 1018.2 |
| 20260507131528 | 39 | 269 | 1.7 | 5.2 | 0.00 | 0.13 | 0.01 | 93 | 1018.3 |
| 20260507130025 | 37 | 219 | 0.9 | 5.2 | 0.00 | 0.13 | 0.01 | 94 | 1018.5 |
| 20260507124515 | 36 | 259 | 2.6 | 6.1 | 0.00 | 0.13 | 0.01 | 94 | 1018.3 |
| 20260507123013 | 35 | 235 | 0.9 | 2.6 | 0.00 | 0.13 | 0.01 | 94 | 1018.3 |
| 20260507121518 | 34 | 254 | 1.7 | 3.5 | 0.00 | 0.13 | 0.01 | 93 | 1018.4 |
| 20260507120038 | 33 | 275 | 1.7 | 5.2 | 0.00 | 0.13 | 0.01 | 93 | 1018.1 |
| 20260507114508 | 33 | 254 | 0.9 | 4.3 | 0.00 | 0.13 | 0.01 | 93 | 1018.3 |
| 20260507113033 | 34 | 266 | 0.9 | 6.1 | 0.00 | 0.13 | 0.01 | 93 | 1018.3 |
| 20260507111518 | 34 | 283 | 1.7 | 5.2 | 0.00 | 0.13 | 0.01 | 93 | 1018.6 |
| 20260507110026 | 34 | 238 | 0.9 | 3.5 | 0.00 | 0.13 | 0.01 | 93 | 1018.7 |